STARLINK-11413, 62593

Orbit data source: Space-Track

STARLINK-11413, 62593 is a payload satellite owned by SpaceX/Seattle (US) in LEO that was launched on Mon, 13 Jan 2025 UTC via an FALCON 9 launch vehicle from the Air Force Eastern Test Range (AFETR). Payloads include a variety of satellites, spacecraft, and rockets equipped with specific instruments for various scientific and technological missions. These include communications satellites like Starlink; space stations such as the ISS; scientific satellites like the Hubble; Earth observation satellites from companies like Planet Labs, Umbra, and HawkEye 360; GPS; miniature CubeSats for education and research; and military/defense satellites.

Not visible in the next 10 days
STARLINK-11413 details
Identifier
62593, 2025-008G
Orbit
LEO
Last TLE update1 day ago
Origin
Flag of USSpaceX/Seattle (US)
ManufacturerSpaceX/Seattle
MissionOperational spacecraft
Bus & MotorSTARLINK V2M, Unknown motor
Mass730 kg wet, ~700 kg dry
Launch date (UTC)
2025-01-13 (3 weeks ago)
Launch vehicle
FALCON 9
Launch site
Air Force Eastern Test Range (AFETR)
Object type
Payload
Rocket body
Debris
Shape & HBRUnknown
Radar Cross SectionLarge (>1 m²)

Expand to show TLE details & history

TLE from 1 day ago
0 STARLINK-11413
1 62593U 25008G   25035.28819833  .00004486  00000-0  28625-4 0  9996
2 62593  43.0006   9.6163 0002003 260.6989  99.3654 15.77860662  4503
Epoch: 2025-02-04T06:55Z
Definitive object data (Epoch: 2025-02-04T06:55:00.335Z)
Latitude-0.00008°
Longitude131.16918°
Altitude336.493 km
Speed7.709 km/s
True Right ascension00h 38m 27s
True Declination0° 00' 00"
Sunlit
Object was in daylight at TLE epoch
Visualization TLE readout
Latitude-36.11667°
Longitude-3.79104°
Altitude345.714 km
Speed7.703 km/s
Apparent Right ascension18h 02m 25s
Apparent Declination-44° 37' 44"
Sunlit
Object is in daylight
Visualization observer readout
Local Sidereal Time08:45:04
Azimuth112.536° SE
Elevation-59.861°
Doppler factor1
Orbital elements
Apogee altitude339.836 km
Perigee altitude337.145 km
Semi-major axis6,716.627 km
Eccentricity0.0002003
Inclination43.0006°
RAAN9.6163°
Arg. of periapsis260.6989°
True anomaly99.38805°
Mean anomaly99.3654°
Eccentric anomaly99.37672°
Mean motion3.9429 °/min
BSTAR0.000028625
Orbital period91.3 mins
Loading maneuver chart data...
Loading historical data...
Loading historical data...
Loading historical data...
Loading historical data...
Loading historical data...
Loading historical data...
Loading historical data...

STARLINK-11413 Visibility forecast

Observer location: undefined°, undefined

STARLINK-11413 is not visible in the next 10 days
Span
Click to sort rows by Start time (UTC) header in descending order
Start Az.
Max El. time (UTC)
Max El. Az.
Max El.
End time (UTC)
End Az.
|